| time (UTC) | temp F | wind direction | speed knots | gust knots | rain 1hr in | rain 24hr in | rain mn in | humidity % | barometer mb |
| 20260506050524 | 67 | 354 | 1.7 | 3.5 | 0.00 | 0.00 | 0.00 | 49 | 1015.1 |
| 20260506044518 | 67 | 58 | 1.7 | 3.5 | 0.00 | 0.00 | 0.00 | 49 | 1014.6 |
| 20260506043555 | 67 | 131 | 0.9 | 2.6 | 0.00 | 0.00 | 0.00 | 49 | 1014.9 |
| 20260506042532 | 67 | 14 | 1.7 | 4.3 | 0.00 | 0.00 | 0.00 | 48 | 1015.1 |
| 20260506041529 | 67 | 360 | 0.9 | 2.6 | 0.00 | 0.00 | 0.00 | 49 | 1015.0 |
| 20260506040526 | 67 | 50 | 0.9 | 2.6 | 0.00 | 0.00 | 0.00 | 48 | 1014.9 |
| 20260506035523 | 67 | 5 | 1.7 | 3.5 | 0.00 | 0.00 | 0.00 | 49 | 1014.9 |
| 20260506034521 | 67 | 344 | 1.7 | 4.3 | 0.00 | 0.00 | 0.00 | 49 | 1014.9 |
| 20260506033518 | 67 | 167 | 0.9 | 3.5 | 0.00 | 0.00 | 0.00 | 49 | 1015.0 |
| 20260506032535 | 66 | 356 | 2.6 | 4.3 | 0.00 | 0.00 | 0.00 | 53 | 1015.2 |
| 20260506031532 | 66 | 227 | 0.9 | 3.5 | 0.00 | 0.00 | 0.00 | 52 | 1015.2 |
| 20260506030529 | 66 | 180 | 1.7 | 3.5 | 0.00 | 0.00 | 0.00 | 51 | 1015.1 |
| 20260506025526 | 66 | 354 | 2.6 | 7.0 | 0.00 | 0.00 | 0.00 | 52 | 1015.1 |
| 20260506024523 | 66 | 350 | 1.7 | 3.5 | 0.00 | 0.00 | 0.00 | 53 | 1015.1 |
| 20260506023520 | 66 | 231 | 1.7 | 3.5 | 0.00 | 0.00 | 0.00 | 53 | 1014.9 |
| 20260506022517 | 66 | 165 | 0.0 | 0.9 | 0.00 | 0.00 | 0.00 | 52 | 1014.9 |
| 20260506021555 | 66 | 352 | 0.0 | 1.7 | 0.00 | 0.00 | 0.00 | 54 | 1014.9 |
| 20260506020532 | 66 | 0.0 | 0.9 | 0.00 | 0.00 | 0.00 | 54 | 1014.9 | |
| 20260506015529 | 66 | 0.0 | 0.9 | 0.00 | 0.00 | 0.00 | 54 | 1014.9 | |
| 20260506014526 | 66 | 180 | 0.0 | 0.9 | 0.00 | 0.00 | 0.00 | 55 | 1014.9 |
| 20260506013523 | 66 | 82 | 0.0 | 0.9 | 0.00 | 0.00 | 0.00 | 55 | 1014.9 |
| 20260506012541 | 66 | 165 | 0.0 | 1.7 | 0.00 | 0.00 | 0.00 | 53 | 1014.8 |
| 20260506011518 | 67 | 175 | 0.0 | 1.7 | 0.00 | 0.00 | 0.00 | 51 | 1014.6 |
| 20260506010555 | 67 | 166 | 0.0 | 0.9 | 0.00 | 0.00 | 0.00 | 52 | 1014.2 |
| 20260506005532 | 67 | 0.0 | 0.0 | 0.00 | 0.00 | 0.00 | 52 | 1014.4 | |
| 20260506004549 | 67 | 0.0 | 0.9 | 0.00 | 0.00 | 0.00 | 52 | 1014.4 | |
| 20260506003526 | 67 | 164 | 0.0 | 0.9 | 0.00 | 0.00 | 0.00 | 52 | 1014.4 |
| 20260506002523 | 67 | 0.0 | 0.9 | 0.00 | 0.00 | 0.00 | 53 | 1014.6 | |
| 20260506001521 | 67 | 3 | 0.0 | 0.9 | 0.00 | 0.00 | 0.00 | 53 | 1014.4 |
| 20260506000518 | 68 | 0.0 | 0.9 | 0.00 | 0.00 | 0.00 | 53 | 1014.4 | |
| 20260505235555 | 68 | 154 | 0.0 | 0.9 | 0.00 | 0.00 | 0.00 | 53 | 1014.6 |
| 20260505234532 | 69 | 0.0 | 0.0 | 0.00 | 0.00 | 0.00 | 50 | 1014.6 | |
| 20260505233529 | 69 | 138 | 0.0 | 0.9 | 0.00 | 0.00 | 0.00 | 51 | 1014.5 |
| 20260505232526 | 70 | 0.0 | 0.9 | 0.00 | 0.00 | 0.00 | 49 | 1014.5 | |
| 20260505231523 | 70 | 188 | 0.0 | 0.9 | 0.00 | 0.00 | 0.00 | 47 | 1014.3 |
| 20260505230520 | 70 | 166 | 0.0 | 0.9 | 0.00 | 0.00 | 0.00 | 48 | 1014.6 |
| 20260505225517 | 70 | 0.0 | 0.9 | 0.00 | 0.00 | 0.00 | 47 | 1014.6 | |
| 20260505224535 | 70 | 0.0 | 1.7 | 0.00 | 0.00 | 0.00 | 45 | 1014.3 | |
| 20260505223532 | 71 | 0.0 | 0.9 | 0.00 | 0.00 | 0.00 | 45 | 1014.5 | |
| 20260505222529 | 72 | 0.0 | 0.9 | 0.00 | 0.00 | 0.00 | 42 | 1014.8 | |
| 20260505221527 | 72 | 325 | 0.0 | 1.7 | 0.00 | 0.00 | 0.00 | 42 | 1014.9 |
| 20260505220524 | 71 | 236 | 0.9 | 2.6 | 0.00 | 0.00 | 0.00 | 42 | 1014.9 |
| 20260505215520 | 71 | 220 | 1.7 | 3.5 | 0.00 | 0.00 | 0.00 | 41 | 1014.9 |
| 20260505214517 | 72 | 202 | 2.6 | 3.5 | 0.00 | 0.00 | 0.00 | 39 | 1014.5 |
| 20260505213535 | 72 | 188 | 2.6 | 4.3 | 0.00 | 0.00 | 0.00 | 40 | 1014.6 |
| 20260505212532 | 73 | 214 | 2.6 | 3.5 | 0.00 | 0.00 | 0.00 | 38 | 1014.6 |
| 20260505211529 | 72 | 222 | 2.6 | 4.3 | 0.00 | 0.00 | 0.00 | 38 | 1014.8 |
| 20260505210526 | 73 | 198 | 2.6 | 5.2 | 0.00 | 0.00 | 0.00 | 37 | 1014.6 |
| 20260505205523 | 73 | 201 | 1.7 | 3.5 | 0.00 | 0.00 | 0.00 | 38 | 1014.8 |
| 20260505204520 | 72 | 218 | 1.7 | 2.6 | 0.00 | 0.00 | 0.00 | 39 | 1014.9 |
| 20260505203517 | 73 | 205 | 2.6 | 5.2 | 0.00 | 0.00 | 0.00 | 37 | 1014.9 |
| 20260505202554 | 73 | 215 | 2.6 | 4.3 | 0.00 | 0.00 | 0.00 | 39 | 1014.9 |
| 20260505201531 | 73 | 202 | 2.6 | 4.3 | 0.00 | 0.00 | 0.00 | 39 | 1014.9 |
| 20260505200528 | 73 | 195 | 2.6 | 5.2 | 0.00 | 0.00 | 0.00 | 38 | 1015.0 |
| 20260505195525 | 72 | 208 | 2.6 | 3.5 | 0.00 | 0.00 | 0.00 | 38 | 1015.0 |
| 20260505194523 | 72 | 202 | 2.6 | 4.3 | 0.00 | 0.00 | 0.00 | 40 | 1015.4 |
| 20260505193520 | 73 | 219 | 2.6 | 3.5 | 0.00 | 0.00 | 0.00 | 40 | 1015.4 |
| 20260505192517 | 73 | 223 | 2.6 | 4.3 | 0.00 | 0.00 | 0.00 | 40 | 1015.6 |
| 20260505191534 | 73 | 239 | 1.7 | 4.3 | 0.00 | 0.00 | 0.00 | 39 | 1015.6 |
| 20260505190531 | 74 | 221 | 2.6 | 3.5 | 0.00 | 0.00 | 0.00 | 37 | 1015.8 |
| 20260505185528 | 73 | 212 | 3.5 | 5.2 | 0.00 | 0.00 | 0.00 | 37 | 1015.8 |
| 20260505184525 | 73 | 204 | 3.5 | 5.2 | 0.00 | 0.00 | 0.00 | 37 | 1016.0 |
| 20260505183543 | 73 | 227 | 2.6 | 4.3 | 0.00 | 0.00 | 0.00 | 38 | 1015.8 |
| 20260505182540 | 73 | 216 | 2.6 | 5.2 | 0.00 | 0.00 | 0.00 | 39 | 1015.9 |
| 20260505181516 | 72 | 222 | 1.7 | 3.5 | 0.00 | 0.00 | 0.00 | 42 | 1016.1 |
| 20260505180534 | 73 | 207 | 1.7 | 4.3 | 0.00 | 0.00 | 0.00 | 42 | 1016.4 |
| 20260505175531 | 72 | 233 | 2.6 | 3.5 | 0.00 | 0.00 | 0.00 | 42 | 1016.6 |
| 20260505174548 | 72 | 190 | 2.6 | 5.2 | 0.00 | 0.00 | 0.00 | 43 | 1016.7 |
| 20260505173525 | 71 | 188 | 2.6 | 5.2 | 0.00 | 0.00 | 0.00 | 44 | 1016.9 |
| 20260505172522 | 72 | 207 | 2.6 | 5.2 | 0.00 | 0.00 | 0.00 | 43 | 1017.0 |
| 20260505171519 | 73 | 281 | 2.6 | 4.3 | 0.00 | 0.00 | 0.00 | 42 | 1017.1 |
| 20260505170517 | 71 | 239 | 2.6 | 4.3 | 0.00 | 0.00 | 0.00 | 40 | 1017.1 |
| 20260505165534 | 70 | 202 | 2.6 | 4.3 | 0.00 | 0.00 | 0.00 | 43 | 1017.2 |
| 20260505164531 | 70 | 198 | 2.6 | 4.3 | 0.00 | 0.00 | 0.00 | 42 | 1017.1 |
| 20260505163528 | 71 | 183 | 3.5 | 7.0 | 0.00 | 0.00 | 0.00 | 41 | 1016.9 |
| 20260505162525 | 71 | 263 | 2.6 | 6.1 | 0.00 | 0.00 | 0.00 | 42 | 1017.1 |
| 20260505161522 | 70 | 229 | 2.6 | 5.2 | 0.00 | 0.00 | 0.00 | 44 | 1017.1 |
| 20260505160519 | 69 | 197 | 2.6 | 5.2 | 0.00 | 0.00 | 0.00 | 43 | 1017.1 |
| 20260505152527 | 68 | 231 | 1.7 | 3.5 | 0.00 | 0.00 | 0.00 | 57 | 1017.5 |
| 20260505151524 | 67 | 218 | 1.7 | 4.3 | 0.00 | 0.00 | 0.00 | 59 | 1017.4 |
| 20260505150542 | 66 | 226 | 1.7 | 3.5 | 0.00 | 0.00 | 0.00 | 59 | 1017.8 |
| 20260505140524 | 61 | 243 | 1.7 | 3.5 | 0.00 | 0.00 | 0.00 | 63 | 1017.5 |
| 20260505124522 | 57 | 193 | 2.6 | 4.3 | 0.00 | 0.00 | 0.00 | 70 | 1016.7 |
| 20260505123519 | 57 | 197 | 2.6 | 3.5 | 0.00 | 0.00 | 0.00 | 68 | 1016.5 |
| 20260505122536 | 57 | 196 | 0.9 | 2.6 | 0.00 | 0.00 | 0.00 | 65 | 1016.5 |
| 20260505121534 | 58 | 210 | 0.9 | 2.6 | 0.00 | 0.00 | 0.00 | 63 | 1016.5 |
| 20260505120530 | 58 | 200 | 0.9 | 2.6 | 0.00 | 0.00 | 0.00 | 60 | 1016.3 |
| 20260505115548 | 57 | 175 | 0.9 | 1.7 | 0.00 | 0.00 | 0.00 | 61 | 1016.5 |
| 20260505114525 | 57 | 260 | 0.0 | 1.7 | 0.00 | 0.00 | 0.00 | 60 | 1016.3 |
| 20260505113522 | 56 | 276 | 0.9 | 1.7 | 0.00 | 0.00 | 0.00 | 60 | 1016.0 |
| 20260505112519 | 56 | 7 | 0.9 | 2.6 | 0.00 | 0.00 | 0.00 | 60 | 1015.9 |
| 20260505111516 | 57 | 4 | 0.9 | 1.7 | 0.00 | 0.00 | 0.00 | 59 | 1015.8 |
| 20260505110533 | 56 | 29 | 0.9 | 1.7 | 0.00 | 0.00 | 0.00 | 59 | 1015.7 |
| 20260505101519 | 57 | 7 | 0.9 | 1.7 | 0.00 | 0.00 | 0.00 | 57 | 1015.4 |
| 20260505100516 | 57 | 147 | 0.9 | 1.7 | 0.00 | 0.00 | 0.00 | 58 | 1015.6 |
| 20260505095534 | 57 | 115 | 0.9 | 1.7 | 0.00 | 0.00 | 0.00 | 57 | 1015.6 |
| 20260505094530 | 56 | 141 | 0.9 | 2.6 | 0.00 | 0.00 | 0.00 | 59 | 1015.5 |
| 20260505093528 | 56 | 60 | 0.9 | 2.6 | 0.00 | 0.00 | 0.00 | 63 | 1015.7 |
| 20260505092525 | 57 | 128 | 1.7 | 2.6 | 0.00 | 0.00 | 0.00 | 58 | 1015.7 |
| 20260505091522 | 58 | 47 | 0.9 | 1.7 | 0.00 | 0.00 | 0.00 | 56 | 1015.6 |
| 20260505090519 | 58 | 131 | 0.9 | 1.7 | 0.00 | 0.00 | 0.00 | 57 | 1015.7 |
| 20260505085516 | 57 | 68 | 0.9 | 1.7 | 0.00 | 0.00 | 0.00 | 57 | 1015.7 |
| 20260505084534 | 57 | 89 | 0.9 | 2.6 | 0.00 | 0.00 | 0.00 | 57 | 1015.9 |
| 20260505083551 | 57 | 37 | 0.9 | 1.7 | 0.00 | 0.00 | 0.00 | 57 | 1015.9 |
| 20260505082528 | 57 | 69 | 0.9 | 1.7 | 0.00 | 0.00 | 0.00 | 59 | 1015.9 |
| 20260505081525 | 57 | 60 | 0.9 | 2.6 | 0.00 | 0.00 | 0.00 | 58 | 1015.8 |
| 20260505080522 | 57 | 168 | 0.9 | 2.6 | 0.00 | 0.00 | 0.00 | 58 | 1016.0 |
| 20260505075519 | 58 | 157 | 1.7 | 3.5 | 0.00 | 0.00 | 0.00 | 57 | 1015.7 |
| 20260505074516 | 57 | 165 | 0.9 | 2.6 | 0.00 | 0.00 | 0.00 | 58 | 1016.0 |
| 20260505073534 | 58 | 61 | 0.9 | 3.5 | 0.00 | 0.00 | 0.00 | 58 | 1015.8 |
| 20260505072530 | 58 | 53 | 1.7 | 2.6 | 0.00 | 0.00 | 0.00 | 56 | 1015.8 |
| 20260505071527 | 59 | 4 | 0.9 | 3.5 | 0.00 | 0.00 | 0.00 | 55 | 1015.9 |
| 20260505070524 | 59 | 345 | 0.9 | 1.7 | 0.00 | 0.00 | 0.00 | 55 | 1015.8 |
| 20260505065522 | 59 | 117 | 0.9 | 2.6 | 0.00 | 0.00 | 0.00 | 56 | 1015.9 |
| 20260505064519 | 59 | 347 | 1.7 | 2.6 | 0.00 | 0.00 | 0.00 | 59 | 1016.0 |
| 20260505063516 | 59 | 318 | 0.9 | 2.6 | 0.00 | 0.00 | 0.00 | 55 | 1016.0 |
| 20260505062533 | 59 | 22 | 0.9 | 2.6 | 0.00 | 0.00 | 0.00 | 54 | 1016.0 |
| 20260505061530 | 59 | 27 | 0.9 | 2.6 | 0.00 | 0.00 | 0.00 | 54 | 1016.0 |
| 20260505060527 | 59 | 346 | 1.7 | 3.5 | 0.00 | 0.00 | 0.00 | 56 | 1016.1 |